Regional Weather Roundup
Issued by NWS Wakefield, VA

Home | Current Version | Previous Version | Graphics & Text | Print | Product List | Glossary On
Versions: 1 2 3 4 5 6 7 8 9 10 11 12 13 14 15 16 17 18 19 20 21 22 23 24 25 26 27 28 29 30 31 32 33 34 35 36 37 38 39 40 41 42 43 44 45 46 47 48 49 50
000
ASUS41 KAKQ 050115
RWRAKQ

REGIONAL WEATHER ROUNDUP
NATIONAL WEATHER SERVICE WAKEFIELD VA
800 PM EST SUN DEC 04 2016

Note: "fair" indicates few or no clouds below 12,000 feet with no
significant weather and/or obstructions to visibility. * = Denotes
station may not report precipitation (e.g., rain,snow,etc.),
thunder or fog.

VAZ042-051-052>054-056-050200-
NORTHERN VIRGINIA

CITY           SKY/WX    TMP DP  RH WIND       PRES   REMARKS
WASH NATIONAL  CLOUDY    45  33  63 S12       30.16F
DULLES         CLOUDY    42  29  59 S6        30.15F
FORT BELVOIR   CLOUDY    43  31  61 S5        30.16F
QUANTICO       CLOUDY    45  32  60 S12       30.18F
FREDERICKSBRG* DRIZZLE   43  35  75 S5        30.17F
STAFFORD*      DRIZZLE   41  32  70 S6        30.20F
WARRENTON      DRIZZLE   43  28  56 S3        30.15S
CULPEPER*      LGT RAIN  42  35  75 CALM      30.16S
MANASSAS*      CLOUDY    43  32  65 S6        30.16F
LEESBURG*      CLOUDY    43  32  65 MISG      30.15F
WINCHESTER     CLOUDY    39  28  65 S6        30.10F
FRONT ROYAL*   CLOUDY    41  32  70 CALM      30.10R
LURAY*         LGT RAIN  37  36  93 SW6       30.10S
$$

VAZ048-049-060>072-079>083-050200-
CENTRAL AND SOUTH CENTRAL VIRGINIA

CITY           SKY/WX    TMP DP  RH WIND       PRES   REMARKS
RICHMOND       LGT RAIN  41  34  76 SE5       30.18F
CHESTERFIELD*  CLOUDY    41  23  48 CALM      30.19F
PETERSBURG*    LGT RAIN  39  38  96 CALM      30.18F
HANOVER        LGT RAIN  41  32  70 CALM      30.19F
TAPPAHANNOCK*  CLOUDY    42  32  68 CALM      30.20S
QUINTON*       CLOUDY    42  34  73 MISG      30.19F
CHARLOTTSVILLE LGT RAIN  40  34  79 S6        30.15S
GORDONSVILLE*  CLOUDY    39  34  83 SW6       30.16R
ORANGE*        DRIZZLE   41  34  75 CALM      30.17S
LOUISA*        DRIZZLE   43  37  81 CALM      30.15S
BUMPASS*       CLOUDY    40  33  74 CALM      30.16F
FARMVILLE*     RAIN      40  40  99 CALM      30.14F
CREWE*         CLOUDY    39  39 100 CALM      30.16F
FORT PICKETT*  CLOUDY    39  36  88 CALM      30.16F
CHASE CITY*    CLOUDY    39  38  95 CALM      30.15F
CLARKSVILLE*   CLOUDY    39  39 100 E3        30.14F
SOUTH HILL*    CLOUDY    40  39  98 CALM      30.22F
LAWRENCEVILLE* CLOUDY    40  39  95 CALM      30.17F
EMPORIA*       LGT RAIN  41  41 100 CALM      30.19F
$$

VAZ088>098-050200-
SOUTHEAST VIRGINIA

CITY           SKY/WX    TMP DP  RH WIND       PRES   REMARKS
NORFOLK        CLOUDY    46  37  71 CALM      30.20S
VIRGINIA BEACH CLOUDY    44  37  76 CALM      30.19S
NORFOLK NAVAL  CLOUDY    46  37  71 CALM      30.21S
WEST POINT*    CLOUDY    42  35  74 CALM      30.21S
SALUDA*        CLOUDY    42  37  82 CALM      30.19S
NEWPORT NEWS   CLOUDY    43  37  79 CALM      30.20S
LANGLEY AFB    LGT RAIN  44  36  74 CALM      30.19S
FORT EUSTIS    CLOUDY    43  36  77 CALM      30.17S
WILLIAMSBURG*  CLOUDY    45  37  76 CALM      30.20F
HR EXEC AP*    CLOUDY    43  37  81 CALM      30.19F
FRANKLIN*      DRIZZLE   42  40  92 CALM      30.20F
US460-WAKEFLD  LGT RAIN  41  39  93 CALM      30.19F
$$

VAZ020-022-025-037-045-050200-
WEST CENTRAL AND SOUTHWEST VIRGINIA

CITY           SKY/WX    TMP DP  RH WIND       PRES   REMARKS
STAUNTON*      DRIZZLE   35  32  88 S7        30.12F
WAYNESBORO*    CLOUDY    35  33  90 SE3       30.10S
HOT SPRINGS VA MIX PCPN  30  30 100 SE8       29.97F VSB<1/4
LYNCHBURG      LGT RAIN  37  36  96 CALM      30.14F FOG
DANVILLE       LGT RAIN  40  40 100 CALM      30.14F FOG
SOUTH BOSTON*  CLOUDY    40  38  95 CALM      30.15F
MARTINSVILLE   DRIZZLE   38  37  97 CALM      30.14F
ROANOKE        LGT RAIN  37  36  96 SE8       30.12F FOG
BLACKSBURG     DRIZZLE   35  34  99 E5        30.09F
DUBLIN*        MIX PCPN  37  36  98 SE3       30.07F
MARION*        DRIZZLE   38  37  96 NE8       30.03S
HILLSVILLE*    FOG       33  33 100 CALM      30.03S VSB 1
RICHLANDS*     CLOUDY    43  42  97 SE5       29.94S
WISE*          CLOUDY    43  43 100 S8        29.95S
ABINGDON*      CLOUDY    45  44  97 E9        29.98R
$$

MDZ021>025-VAZ099-100-050200-
SOUTHERN MARYLAND AND THE DELMARVA PENINSULA

CITY           SKY/WX    TMP DP  RH WIND       PRES   REMARKS
PATUXENT RIVER CLOUDY    44  31  60 S6        30.17F
BAY BRIDGE APT CLOUDY    43  32  65 S6        30.17S
LEONARDTOWN    CLOUDY    41  32  70 CALM      30.19F
DOVER          CLOUDY    41  34  75 S5        30.16F
GEORGETOWN     CLOUDY    42  33  70 CALM      30.19S
EASTON         CLEAR     41  30  65 S3        30.20F
CAMBRIDGE      CLOUDY    39  34  81 CALM      30.18S
SALISBURY      CLOUDY    41  36  82 CALM      30.19S
OCEAN CITY     MOCLDY    41  34  76 CALM      30.19F
WALLOPS ISLAND CLOUDY    40  36  86 CALM      30.19F
ACCOMACK*      CLOUDY    41  38  87 CALM      30.20S
$$

NCZ012>017-030>032-050200-
NORTH CENTRAL AND EASTERN NORTH CAROLINA

CITY           SKY/WX    TMP DP  RH WIND       PRES   REMARKS
ROANOKE RAPIDS LGT RAIN  43  41  93 CALM      30.18F
RALEIGH        LGT RAIN  43  40  89 VRB3      30.14F FOG
ELIZABETH CITY LGT RAIN  47  37  68 E3        30.20F
AHOSKIE*       RAIN      42  41  97 CALM      30.20S
EDENTON*       DRIZZLE   47  42  82 CALM      30.20F
CURRITUCK*     CLOUDY    46  40  79 CALM      30.21S
KILL DEVIL HLS CLOUDY    48  41  77 CALM      30.19S
MANTEO         CLOUDY    46  40  81 CALM      30.20F
CAPE HATTERAS  CLOUDY    49  42  77 NE3       30.19S
TARBORO*       NOT AVBL
GOLDSBORO      LGT RAIN  44  44 100 E8        30.13F
WASHINGTON     RAIN      45  42  91 CALM      30.19F
GREENVILLE     LGT RAIN  45  45 100 CALM      30.20
NEW BERN       LGT RAIN  46  43  89 E3        30.19F
WILMINGTON     CLOUDY    46  44  93 NE8       30.15F
$$

VAZ048-050200-
ELSEWHERE

CITY           SKY/WX    TMP DP  RH WIND       PRES   REMARKS
HARRISBURG PA  CLOUDY    42  33  70 S5        30.13F
BALTIMORE      CLOUDY    42  32  67 S3        30.16F
ANNAPOLIS      CLOUDY    45  33  63 S6        30.17F
ANDREWS AFB    CLOUDY    42  30  63 S6        30.15F
PHILADELPHIA   CLOUDY    44  29  55 SW3       30.18F
HENDERSON NC   RAIN      38  36  93 CALM      30.14F
GREENSBORO     LGT RAIN  41  40  96 CALM      30.11F FOG
ROCKY MOUNT    LGT RAIN  43  43 100 CALM      30.16F FOG
$$

VAZ100-050200-
MARINE

STATION/POSITION TIME  TEMP    WIND        PRES    WAVE   SWELL
                       AIR SEA DIR/SP/G            HT/PER HT/PER
                 (UTC) (F)     (DEG/KT/KT) (MB)    (FT/S) (FT/S)
BRANDYWINE LGT   0048   45     170/  5/  6   N/A
CAPE MAY NJ      0042   42 47  160/  2/  2 1021.6F
LEWES DE         0048   44 49  160/  2/  3 1021.9F
OCEAN-CITY-INLET 0048   45 50  260/  2/  3 1022.6F
WACHAPREAGUE VA  0048   42 48   CALM  /  1 1022.5S
THOMAS POINT MD  0000   45 49  130/  9/  9   N/A
GOOSES REEF MD   0100   45 50  190/ 12/ 14 1022.3    1
COVE POINT MD    0048   44     210/  8/ 10 1022.5R
SOLOMONS ISLAND  0048   45 51  170/  8/  9   N/A
BISHOPS HEAD MD  0048   44 45  190/  5/  6 1022.7R
PINEY POINT MD   0036          200/  7/  9   N/A
POTOMAC MD       0100   45 51  210/  8/  8 1021.3
CAMBRIDGE MD     0048   43 47  180/  3/  5 1021.2F
LEWISETTA VA     0048   44 48  210/  4/  4 1022.1S
RAPPAHANNOCK LGT 0036          150/  6/  7 1023.0F
STINGRAY PT      0100   45     210/  6/  8 1022.7    0
YORK RVR RNG VA  0048   47     180/  5/  8 1022.1R
YORKTOWN VA      0048   45 52  190/  3/  4 1022.2R
JAMESTOWN VA     0100   44 52  170/  4/  4   N/A     0
DOMINION TERM VA 0036   47     140/  4/  6 1022.6R
KIPTOPEKE VA     0036      51   60/  2/  2   N/A
CHES BAY BRIDGE  0036   47 53  170/  2/  3 1022.6R
CAPE HENRY VA    0036   46     170/  2/  2   N/A
WILLOUBY STN VA  0036   46     150/  6/  6 1023.4S
S CRANEY ISL VA  0036   46     110/  5/  6 1022.5R
CAPE HENRY BUOY  0042      56                N/A     2/ 5
1ST LANDING BUOY 0100   47 53              1022.6    1/ 4
CAPE CHARLES BUO 0056      55                N/A     2/ 5
OFFSHORE WE BUOY 0051      56                N/A     3/ 6
64NM E OF VA BCH 0050   50 60   30/  6/  8 1022.4R   3/ 7   3/ 7
DUCK PIER NC     0036   49 55  100/  3/  5 1022.2R
44100 DUCK FRF   0035      56                N/A     3/ 6
OREGON INLET NC  0036   49 55   50/  4/  5 1022.5F
HATTERAS NC      0036   51 59   30/  3/  4 1022.0S
DIAMOND SHLS NC  0050   58 75   70/  4/  8 1022.2F   3/ 9   3/ 9
CAPE LOOKOUT NC  0000   53      40/ 13/ 15 1021.6F
$$



USA.gov is the U.S. government's official web portal to all federal, state and local government web resources and services.